owner,sensor,date,latitude,longitude,vertical_datum,wind_speed,wind_to_direction,wind_speed_of_gust,qcFlag 
TABS,ioos:station:wmo:42047:1,2009-12-01T00:00:00Z,27.8966,-93.5973,4.0,10.39946633,34.69834644,11.74,'11111222,11111222,11111222' 
TABS,ioos:station:wmo:42047:1,2009-12-01T00:30:00Z,27.8966,-93.5973,4.0,9.782295232,33.36488443,11.38,'11111222,11111222,11111222' 
TABS,ioos:station:wmo:42047:1,2009-12-01T01:00:00Z,27.8966,-93.5973,4.0,9.436233359,26.42900718,10.34,'11111222,11111222,11111222' 
TABS,ioos:station:wmo:42047:1,2009-12-01T01:30:00Z,27.8966,-93.5973,4.0,9.597629916,43.7754243,10.71,'11111222,11111222,11111222' 
TABS,ioos:station:wmo:42047:1,2009-12-01T02:00:00Z,27.8966,-93.5973,4.0,9.892188838,47.12987078,11.29,'11111222,11111222,11111222' 
TABS,ioos:station:wmo:42047:1,2009-12-01T02:30:00Z,27.8966,-93.5973,4.0,9.433265606,55.66944217,10.8,'11111222,11111222,11111222' 
TABS,ioos:station:wmo:42047:1,2009-12-01T03:00:00Z,27.8966,-93.5973,4.0,9.412215467,57.40707383,10.98,'11111222,11111222,11111222' 
TABS,ioos:station:wmo:42047:1,2009-12-01T03:30:00Z,27.8966,-93.5973,4.0,9.325583092,71.42867175,10.76,'11111222,11111222,11111222' 
TABS,ioos:station:wmo:42047:1,2009-12-01T04:00:00Z,27.8966,-93.5973,4.0,10.15614592,82.5317053,11.33,'11111222,11111222,11111222' 
TABS,ioos:station:wmo:42047:1,2009-12-01T04:30:00Z,27.8966,-93.5973,4.0,10.32237376,72.23168813,11.35,'11111222,11111222,11111222' 
TABS,ioos:station:wmo:42047:1,2009-12-01T05:00:00Z,27.8966,-93.5973,4.0,8.71188269,75.91551574,9.82,'11111222,11111222,11111222' 
TABS,ioos:station:wmo:42047:1,2009-12-01T05:30:00Z,27.8966,-93.5973,4.0,8.208318951,64.68334366,10.23,'11111222,11111222,11111222' 
TABS,ioos:station:wmo:42047:1,2009-12-01T06:00:00Z,27.8966,-93.5973,4.0,6.891190028,57.6241148,7.9,'11111222,11111222,11111222' 
TABS,ioos:station:wmo:42047:1,2009-12-01T06:30:00Z,27.8966,-93.5973,4.0,7.543507142,54.87697102,9.02,'11111222,11111222,11111222' 
TABS,ioos:station:wmo:42047:1,2009-12-01T07:00:00Z,27.8966,-93.5973,4.0,9.00267738,57.70418574,10.44,'11111222,11111222,11111222' 
TABS,ioos:station:wmo:42047:1,2009-12-01T07:30:00Z,27.8966,-93.5973,4.0,9.939703215,52.0690719,11.29,'11111222,11111222,11111222' 
TABS,ioos:station:wmo:42047:1,2009-12-01T08:00:00Z,27.8966,-93.5973,4.0,9.58995829,66.1342059,10.53,'11111222,11111222,11111222' 
TABS,ioos:station:wmo:42047:1,2009-12-01T08:30:00Z,27.8966,-93.5973,4.0,9.145446955,71.24768825,10.31,'11111222,11111222,11111222' 
TABS,ioos:station:wmo:42047:1,2009-12-01T09:00:00Z,27.8966,-93.5973,4.0,8.924376729,74.26587034,9.95,'11111222,11111222,11111222' 
TABS,ioos:station:wmo:42047:1,2009-12-01T09:30:00Z,27.8966,-93.5973,4.0,8.018035919,52.95826711,9.69,'11111222,11111222,11111222' 
TABS,ioos:station:wmo:42047:1,2009-12-01T10:00:00Z,27.8966,-93.5973,4.0,9.328236704,61.01663262,10.1,'11111222,11111222,11111222' 
TABS,ioos:station:wmo:42047:1,2009-12-01T10:30:00Z,27.8966,-93.5973,4.0,9.984628185,56.43691379,11.31,'11111222,11111222,11111222' 
TABS,ioos:station:wmo:42047:1,2009-12-01T11:00:00Z,27.8966,-93.5973,4.0,9.043964838,44.77569935,10.55,'11111222,11111222,11111222' 
TABS,ioos:station:wmo:42047:1,2009-12-01T11:30:00Z,27.8966,-93.5973,4.0,10.62885224,44.19919844,11.75,'11111222,11111222,11111222' 
TABS,ioos:station:wmo:42047:1,2009-12-01T12:00:00Z,27.8966,-93.5973,4.0,11.5351853,48.05676837,12.91,'11111222,11111222,11111222' 
TABS,ioos:station:wmo:42047:1,2009-12-01T12:30:00Z,27.8966,-93.5973,4.0,10.94646062,45.51784786,12.22,'11111222,11111222,11111222' 
TABS,ioos:station:wmo:42047:1,2009-12-01T13:00:00Z,27.8966,-93.5973,4.0,11.84577984,57.58410755,13.44,'11111222,11111222,11111222' 
TABS,ioos:station:wmo:42047:1,2009-12-01T13:30:00Z,27.8966,-93.5973,4.0,13.8765882,70.24581353,15.11,'11111222,11111222,11111222' 
TABS,ioos:station:wmo:42047:1,2009-12-01T14:00:00Z,27.8966,-93.5973,4.0,12.38215248,65.98076668,13.9,'11111222,11111222,11111222' 
TABS,ioos:station:wmo:42047:1,2009-12-01T14:30:00Z,27.8966,-93.5973,4.0,13.84597053,68.69770054,15.19,'11111222,11111222,11111222' 
TABS,ioos:station:wmo:42047:1,2009-12-01T15:00:00Z,27.8966,-93.5973,4.0,12.46800706,60.39156528,13.87,'11111222,11111222,11111222' 
TABS,ioos:station:wmo:42047:1,2009-12-01T15:30:00Z,27.8966,-93.5973,4.0,11.99982083,47.80307255,13.17,'11111222,11111222,11111222' 
TABS,ioos:station:wmo:42047:1,2009-12-01T16:00:00Z,27.8966,-93.5973,4.0,11.92433227,30.82338679,13.25,'11111222,11111222,11111222' 
TABS,ioos:station:wmo:42047:1,2009-12-01T16:30:00Z,27.8966,-93.5973,4.0,11.80919134,39.36420602,13.56,'11111222,11111222,11111222' 
TABS,ioos:station:wmo:42047:1,2009-12-01T17:00:00Z,27.8966,-93.5973,4.0,11.93588287,52.11205361,13.19,'11111222,11111222,11111222' 
TABS,ioos:station:wmo:42047:1,2009-12-01T17:30:00Z,27.8966,-93.5973,4.0,11.01555718,46.87574954,12.82,'11111222,11111222,11111222' 
TABS,ioos:station:wmo:42047:1,2009-12-01T18:00:00Z,27.8966,-93.5973,4.0,9.986435801,17.00124211,11.25,'11111222,11111222,11111222' 
TABS,ioos:station:wmo:42047:1,2009-12-01T18:30:00Z,27.8966,-93.5973,4.0,9.697324373,27.64819256,11.34,'11111222,11111222,11111222' 
TABS,ioos:station:wmo:42047:1,2009-12-01T19:00:00Z,27.8966,-93.5973,4.0,10.83278358,47.91811221,12.52,'11111222,11111222,11111222' 
TABS,ioos:station:wmo:42047:1,2009-12-01T19:30:00Z,27.8966,-93.5973,4.0,8.4232654,60.48256506,10.22,'11111222,11111222,11111222' 
TABS,ioos:station:wmo:42047:1,2009-12-01T20:00:00Z,27.8966,-93.5973,4.0,12.1878382,71.08895502,13.6,'11111222,11111222,11111222' 
TABS,ioos:station:wmo:42047:1,2009-12-01T20:30:00Z,27.8966,-93.5973,4.0,11.75393126,78.0682696,13.28,'11111222,11111222,11111222' 
TABS,ioos:station:wmo:42047:1,2009-12-01T21:00:00Z,27.8966,-93.5973,4.0,12.73642414,93.69179827,14.6,'11111222,11111222,11111222' 
TABS,ioos:station:wmo:42047:1,2009-12-01T21:30:00Z,27.8966,-93.5973,4.0,11.87808907,106.4824757,13.07,'11111222,11111222,11111222' 
TABS,ioos:station:wmo:42047:1,2009-12-01T22:00:00Z,27.8966,-93.5973,4.0,11.33142974,102.3317613,12.89,'11111222,11111222,11111222' 
TABS,ioos:station:wmo:42047:1,2009-12-01T22:30:00Z,27.8966,-93.5973,4.0,11.54685238,96.61458028,12.82,'11111222,11111222,11111222' 
TABS,ioos:station:wmo:42047:1,2009-12-01T23:00:00Z,27.8966,-93.5973,4.0,11.43391884,67.58406307,12.75,'11111222,11111222,11111222' 
TABS,ioos:station:wmo:42047:1,2009-12-01T23:30:00Z,27.8966,-93.5973,4.0,9.178289601,92.43573647,10.41,'11111222,11111222,11111222' 
TABS,ioos:station:wmo:42047:1,2009-12-02T00:00:00Z,27.8966,-93.5973,4.0,8.554793978,98.53778997,9.98,'11111222,11111222,11111222' 
TABS,ioos:station:wmo:42047:1,2009-12-02T00:30:00Z,27.8966,-93.5973,4.0,7.088645851,109.790125,8.26,'11111222,11111222,11111222' 
TABS,ioos:station:wmo:42047:1,2009-12-02T01:00:00Z,27.8966,-93.5973,4.0,8.592397803,122.2107091,9.72,'11111222,11111222,11111222' 
TABS,ioos:station:wmo:42047:1,2009-12-02T01:30:00Z,27.8966,-93.5973,4.0,8.476585397,115.3561828,9.79,'11111222,11111222,11111222' 
TABS,ioos:station:wmo:42047:1,2009-12-02T02:00:00Z,27.8966,-93.5973,4.0,7.739412122,115.0753968,9.67,'11111222,11111222,11111222' 
TABS,ioos:station:wmo:42047:1,2009-12-02T02:30:00Z,27.8966,-93.5973,4.0,9.251172899,122.6425402,10.77,'11111222,11111222,11111222' 
TABS,ioos:station:wmo:42047:1,2009-12-02T03:00:00Z,27.8966,-93.5973,4.0,9.816440292,138.9241958,11.41,'11111222,11111222,11111222' 
TABS,ioos:station:wmo:42047:1,2009-12-02T03:30:00Z,27.8966,-93.5973,4.0,5.321024337,190.6132263,18.11,'11111222,11111222,11111222' 
TABS,ioos:station:wmo:42047:1,2009-12-02T04:00:00Z,27.8966,-93.5973,4.0,16.10806009,312.5846384,18.6,'11111222,11111222,11111222' 
TABS,ioos:station:wmo:42047:1,2009-12-02T04:30:00Z,27.8966,-93.5973,4.0,14.48861622,313.2099883,16.56,'11111222,11111222,11111222' 
TABS,ioos:station:wmo:42047:1,2009-12-02T05:00:00Z,27.8966,-93.5973,4.0,12.3282805,316.3473924,14.11,'11111222,11111222,11111222' 
TABS,ioos:station:wmo:42047:1,2009-12-02T05:30:00Z,27.8966,-93.5973,4.0,10.52009981,326.672331,12.34,'11111222,11111222,11111222' 
TABS,ioos:station:wmo:42047:1,2009-12-02T06:00:00Z,27.8966,-93.5973,4.0,9.384822854,348.0073971,11.33,'11111222,11111222,11111222' 
TABS,ioos:station:wmo:42047:1,2009-12-02T06:30:00Z,27.8966,-93.5973,4.0,5.561726351,7.022566955,7.04,'11111222,11111222,11111222' 
TABS,ioos:station:wmo:42047:1,2009-12-02T07:00:00Z,27.8966,-93.5973,4.0,3.911431963,331.2724909,5.0,'11111222,11111222,11111222' 
TABS,ioos:station:wmo:42047:1,2009-12-02T07:30:00Z,27.8966,-93.5973,4.0,3.560056179,270.3218823,4.63,'11111222,11111222,11111222' 
TABS,ioos:station:wmo:42047:1,2009-12-02T08:00:00Z,27.8966,-93.5973,4.0,6.19525625,276.1154893,7.51,'11111222,11111222,11111222' 
TABS,ioos:station:wmo:42047:1,2009-12-02T08:30:00Z,27.8966,-93.5973,4.0,8.011404371,262.9016123,9.34,'11111222,11111222,11111222' 
TABS,ioos:station:wmo:42047:1,2009-12-02T09:00:00Z,27.8966,-93.5973,4.0,7.298856075,261.5701747,8.64,'11111222,11111222,11111222' 
TABS,ioos:station:wmo:42047:1,2009-12-02T09:30:00Z,27.8966,-93.5973,4.0,8.743111574,258.2531235,10.48,'11111222,11111222,11111222' 
TABS,ioos:station:wmo:42047:1,2009-12-02T10:00:00Z,27.8966,-93.5973,4.0,8.960273433,262.8194813,10.52,'11111222,11111222,11111222' 
TABS,ioos:station:wmo:42047:1,2009-12-02T10:30:00Z,27.8966,-93.5973,4.0,8.890022497,269.8711011,10.17,'11111222,11111222,11111222' 
TABS,ioos:station:wmo:42047:1,2009-12-02T11:00:00Z,27.8966,-93.5973,4.0,9.612002913,263.4886739,11.35,'11111222,11111222,11111222' 
TABS,ioos:station:wmo:42047:1,2009-12-02T11:30:00Z,27.8966,-93.5973,4.0,11.1585707,264.6521754,12.81,'11111222,11111222,11111222' 
TABS,ioos:station:wmo:42047:1,2009-12-02T12:00:00Z,27.8966,-93.5973,4.0,10.55746182,275.9805855,12.14,'11111222,11111222,11111222' 
TABS,ioos:station:wmo:42047:1,2009-12-02T12:30:00Z,27.8966,-93.5973,4.0,10.5503744,265.6512866,11.89,'11111222,11111222,11111222' 
TABS,ioos:station:wmo:42047:1,2009-12-02T13:00:00Z,27.8966,-93.5973,4.0,10.23059138,269.3839415,11.71,'11111222,11111222,11111222' 
TABS,ioos:station:wmo:42047:1,2009-12-02T13:30:00Z,27.8966,-93.5973,4.0,10.77780126,272.1801185,12.52,'11111222,11111222,11111222' 
TABS,ioos:station:wmo:42047:1,2009-12-02T14:00:00Z,27.8966,-93.5973,4.0,11.26001776,270.1017684,13.58,'11111222,11111222,11111222' 
TABS,ioos:station:wmo:42047:1,2009-12-02T14:30:00Z,27.8966,-93.5973,4.0,11.76006803,269.8051176,13.9,'11111222,11111222,11111222' 
TABS,ioos:station:wmo:42047:1,2009-12-02T15:00:00Z,27.8966,-93.5973,4.0,11.37450219,268.3878832,13.58,'11111222,11111222,11111222' 
TABS,ioos:station:wmo:42047:1,2009-12-02T15:30:00Z,27.8966,-93.5973,4.0,11.91283761,271.2505879,14.15,'11111222,11111222,11111222' 
TABS,ioos:station:wmo:42047:1,2009-12-02T16:00:00Z,27.8966,-93.5973,4.0,12.69054766,273.97624,14.95,'11111222,11111222,11111222' 
TABS,ioos:station:wmo:42047:1,2009-12-02T16:30:00Z,27.8966,-93.5973,4.0,13.19493842,276.8772479,15.55,'11111222,11111222,11111222' 
TABS,ioos:station:wmo:42047:1,2009-12-02T17:00:00Z,27.8966,-93.5973,4.0,12.87650962,278.3503291,15.12,'11111222,11111222,11111222' 
TABS,ioos:station:wmo:42047:1,2009-12-02T17:30:00Z,27.8966,-93.5973,4.0,12.84757176,281.2661756,14.73,'11111222,11111222,11111222' 
TABS,ioos:station:wmo:42047:1,2009-12-02T18:00:00Z,27.8966,-93.5973,4.0,11.57629042,286.6660206,13.85,'11111222,11111222,11111222' 
TABS,ioos:station:wmo:42047:1,2009-12-02T18:30:00Z,27.8966,-93.5973,4.0,12.2906021,281.3556182,14.25,'11111222,11111222,11111222' 
TABS,ioos:station:wmo:42047:1,2009-12-02T19:00:00Z,27.8966,-93.5973,4.0,12.35248963,285.2062654,14.4,'11111222,11111222,11111222' 
TABS,ioos:station:wmo:42047:1,2009-12-02T19:30:00Z,27.8966,-93.5973,4.0,12.50761768,289.0867876,14.48,'11111222,11111222,11111222' 
TABS,ioos:station:wmo:42047:1,2009-12-02T20:00:00Z,27.8966,-93.5973,4.0,12.500036,292.4823028,14.52,'11111222,11111222,11111222' 
TABS,ioos:station:wmo:42047:1,2009-12-02T20:30:00Z,27.8966,-93.5973,4.0,12.27201695,285.5990493,14.57,'11111222,11111222,11111222' 
TABS,ioos:station:wmo:42047:1,2009-12-02T21:00:00Z,27.8966,-93.5973,4.0,12.09464758,293.2794008,15.02,'11111222,11111222,11111222' 
TABS,ioos:station:wmo:42047:1,2009-12-02T21:30:00Z,27.8966,-93.5973,4.0,12.92181102,291.0438287,15.58,'11111222,11111222,11111222' 
TABS,ioos:station:wmo:42047:1,2009-12-02T22:00:00Z,27.8966,-93.5973,4.0,12.09532968,289.6633375,14.45,'11111222,11111222,11111222' 
TABS,ioos:station:wmo:42047:1,2009-12-02T22:30:00Z,27.8966,-93.5973,4.0,11.73051576,294.314544,13.64,'11111222,11111222,11111222' 
TABS,ioos:station:wmo:42047:1,2009-12-02T23:00:00Z,27.8966,-93.5973,4.0,11.61658297,299.1024422,14.41,'11111222,11111222,11111222' 
TABS,ioos:station:wmo:42047:1,2009-12-02T23:30:00Z,27.8966,-93.5973,4.0,11.97424737,302.9335231,14.19,'11111222,11111222,11111222' 
TABS,ioos:station:wmo:42047:1,2009-12-03T00:00:00Z,27.8966,-93.5973,4.0,12.33156924,308.8774054,14.94,'11111222,11111222,11111222' 
TABS,ioos:station:wmo:42047:1,2009-12-03T00:30:00Z,27.8966,-93.5973,4.0,12.10190481,308.6597179,13.8,'11111222,11111222,11111222' 
TABS,ioos:station:wmo:42047:1,2009-12-03T01:00:00Z,27.8966,-93.5973,4.0,11.82016074,318.7729212,13.45,'11111222,11111222,11111222' 
TABS,ioos:station:wmo:42047:1,2009-12-03T01:30:00Z,27.8966,-93.5973,4.0,12.17782,318.495286,14.46,'11111222,11111222,11111222' 
TABS,ioos:station:wmo:42047:1,2009-12-03T02:00:00Z,27.8966,-93.5973,4.0,11.74687192,336.4682173,13.68,'11111222,11111222,11111222' 
TABS,ioos:station:wmo:42047:1,2009-12-03T02:30:00Z,27.8966,-93.5973,4.0,11.37102458,319.9943163,13.53,'11111222,11111222,11111222' 
TABS,ioos:station:wmo:42047:1,2009-12-03T03:00:00Z,27.8966,-93.5973,4.0,12.1500823,338.0583228,13.99,'11111222,11111222,11111222' 
TABS,ioos:station:wmo:42047:1,2009-12-03T03:30:00Z,27.8966,-93.5973,4.0,11.04536102,338.5452061,13.19,'11111222,11111222,11111222' 
TABS,ioos:station:wmo:42047:1,2009-12-03T04:00:00Z,27.8966,-93.5973,4.0,9.974136554,336.5447974,12.72,'11111222,11111222,11111222' 
TABS,ioos:station:wmo:42047:1,2009-12-03T04:30:00Z,27.8966,-93.5973,4.0,9.91811474,345.220977,12.14,'11111222,11111222,11111222' 
TABS,ioos:station:wmo:42047:1,2009-12-03T05:00:00Z,27.8966,-93.5973,4.0,10.28214958,346.788017,12.12,'11111222,11111222,11111222' 
TABS,ioos:station:wmo:42047:1,2009-12-03T05:30:00Z,27.8966,-93.5973,4.0,9.650932597,348.8878153,12.83,'11111222,11111222,11111222' 
TABS,ioos:station:wmo:42047:1,2009-12-03T06:00:00Z,27.8966,-93.5973,4.0,9.607205629,343.6775991,11.35,'11111222,11111222,11111222' 
TABS,ioos:station:wmo:42047:1,2009-12-03T06:30:00Z,27.8966,-93.5973,4.0,9.679323323,353.6530758,12.04,'11111222,11111222,11111222' 
TABS,ioos:station:wmo:42047:1,2009-12-03T07:00:00Z,27.8966,-93.5973,4.0,9.278803802,343.791492,11.43,'11111222,11111222,11111222' 
TABS,ioos:station:wmo:42047:1,2009-12-03T07:30:00Z,27.8966,-93.5973,4.0,8.237718131,356.2412426,10.03,'11111222,11111222,11111222' 
TABS,ioos:station:wmo:42047:1,2009-12-03T08:00:00Z,27.8966,-93.5973,4.0,8.974653197,341.2822438,11.13,'11111222,11111222,11111222' 
TABS,ioos:station:wmo:42047:1,2009-12-03T08:30:00Z,27.8966,-93.5973,4.0,8.868534264,351.897116,10.83,'11111222,11111222,11111222' 
TABS,ioos:station:wmo:42047:1,2009-12-03T09:00:00Z,27.8966,-93.5973,4.0,8.027178832,355.2835793,9.68,'11111222,11111222,11111222' 
TABS,ioos:station:wmo:42047:1,2009-12-03T09:30:00Z,27.8966,-93.5973,4.0,7.323824138,338.198431,9.26,'11111222,11111222,11111222' 
TABS,ioos:station:wmo:42047:1,2009-12-03T10:00:00Z,27.8966,-93.5973,4.0,7.386535047,350.2569432,9.11,'11111222,11111222,11111222' 
TABS,ioos:station:wmo:42047:1,2009-12-03T10:30:00Z,27.8966,-93.5973,4.0,6.868900931,353.8991107,9.21,'11111222,11111222,11111222' 
TABS,ioos:station:wmo:42047:1,2009-12-03T11:00:00Z,27.8966,-93.5973,4.0,5.96480511,4.03749072,8.34,'11111222,11111222,11111222' 
TABS,ioos:station:wmo:42047:1,2009-12-03T11:30:00Z,27.8966,-93.5973,4.0,5.757030485,15.41199004,7.81,'11111222,11111222,11111222' 
TABS,ioos:station:wmo:42047:1,2009-12-03T12:00:00Z,27.8966,-93.5973,4.0,6.071655458,18.73310738,7.46,'11111222,11111222,11111222' 
TABS,ioos:station:wmo:42047:1,2009-12-03T12:30:00Z,27.8966,-93.5973,4.0,5.81416374,2.168296041,7.21,'11111222,11111222,11111222' 
TABS,ioos:station:wmo:42047:1,2009-12-03T13:00:00Z,27.8966,-93.5973,4.0,6.668320628,15.03633178,8.98,'11111222,11111222,11111222' 
TABS,ioos:station:wmo:42047:1,2009-12-03T13:30:00Z,27.8966,-93.5973,4.0,4.95800363,10.81109099,6.32,'11111222,11111222,11111222' 
TABS,ioos:station:wmo:42047:1,2009-12-03T14:00:00Z,27.8966,-93.5973,4.0,5.121816084,6.389380546,7.23,'11111222,11111222,11111222' 
TABS,ioos:station:wmo:42047:1,2009-12-03T14:30:00Z,27.8966,-93.5973,4.0,4.811912302,13.94936369,6.56,'11111222,11111222,11111222' 
TABS,ioos:station:wmo:42047:1,2009-12-03T15:00:00Z,27.8966,-93.5973,4.0,5.185142235,5.644398548,7.01,'11111222,11111222,11111222' 
TABS,ioos:station:wmo:42047:1,2009-12-03T15:30:00Z,27.8966,-93.5973,4.0,3.549380228,350.4313374,4.98,'11111222,11111222,11111222' 
TABS,ioos:station:wmo:42047:1,2009-12-03T16:00:00Z,27.8966,-93.5973,4.0,3.560294932,334.3704502,5.36,'11111222,11111222,11111222' 
TABS,ioos:station:wmo:42047:1,2009-12-03T16:30:00Z,27.8966,-93.5973,4.0,3.540183611,349.419927,5.73,'11111222,11111222,11111222' 
TABS,ioos:station:wmo:42047:1,2009-12-03T17:00:00Z,27.8966,-93.5973,4.0,3.958307719,329.4829428,5.65,'11111222,11111222,11111222' 
TABS,ioos:station:wmo:42047:1,2009-12-03T17:30:00Z,27.8966,-93.5973,4.0,4.078296213,347.3948202,5.47,'11111222,11111222,11111222' 
TABS,ioos:station:wmo:42047:1,2009-12-03T18:00:00Z,27.8966,-93.5973,4.0,4.045343002,335.4621184,5.84,'11111222,11111222,11111222' 
TABS,ioos:station:wmo:42047:1,2009-12-03T18:30:00Z,27.8966,-93.5973,4.0,3.153569406,332.2159281,5.44,'11111222,11111222,11111222' 
TABS,ioos:station:wmo:42047:1,2009-12-03T19:00:00Z,27.8966,-93.5973,4.0,4.104948234,355.1086552,5.65,'11111222,11111222,11111222' 
TABS,ioos:station:wmo:42047:1,2009-12-03T19:30:00Z,27.8966,-93.5973,4.0,3.860323821,359.2576595,5.95,'11111222,11144222,11111222' 
TABS,ioos:station:wmo:42047:1,2009-12-03T20:00:00Z,27.8966,-93.5973,4.0,4.171714276,345.5638483,5.29,'11111222,11111222,11111222' 
TABS,ioos:station:wmo:42047:1,2009-12-03T20:30:00Z,27.8966,-93.5973,4.0,4.36285457,8.037011303,6.14,'11111222,11111222,11111222' 
TABS,ioos:station:wmo:42047:1,2009-12-03T21:00:00Z,27.8966,-93.5973,4.0,3.733871985,357.3902657,5.89,'11111222,11111222,11111222' 
TABS,ioos:station:wmo:42047:1,2009-12-03T21:30:00Z,27.8966,-93.5973,4.0,4.237275068,346.4883097,5.71,'11111222,11111222,11111222' 
TABS,ioos:station:wmo:42047:1,2009-12-03T22:00:00Z,27.8966,-93.5973,4.0,4.340933079,358.8118013,6.07,'11111222,11111222,11111222' 
TABS,ioos:station:wmo:42047:1,2009-12-03T22:30:00Z,27.8966,-93.5973,4.0,5.40778143,3.073824919,6.65,'11111222,11111222,11111222' 
TABS,ioos:station:wmo:42047:1,2009-12-03T23:00:00Z,27.8966,-93.5973,4.0,4.596803237,356.8821921,6.21,'11111222,11111222,11111222' 
TABS,ioos:station:wmo:42047:1,2009-12-03T23:30:00Z,27.8966,-93.5973,4.0,4.465926556,357.0476965,5.9,'11111222,11111222,11111222' 
TABS,ioos:station:wmo:42047:1,2009-12-04T00:00:00Z,27.8966,-93.5973,4.0,4.237570058,18.00712375,5.76,'11111222,11111222,11111222' 
TABS,ioos:station:wmo:42047:1,2009-12-04T00:30:00Z,27.8966,-93.5973,4.0,4.730803314,16.32777889,6.41,'11111222,11111222,11111222' 
TABS,ioos:station:wmo:42047:1,2009-12-04T01:00:00Z,27.8966,-93.5973,4.0,5.201163331,1.211632073,7.17,'11111222,11111222,11111222' 
TABS,ioos:station:wmo:42047:1,2009-12-04T01:30:00Z,27.8966,-93.5973,4.0,5.505506335,25.95972928,7.37,'11111222,11111222,11111222' 
TABS,ioos:station:wmo:42047:1,2009-12-04T02:00:00Z,27.8966,-93.5973,4.0,5.317386576,26.70934258,6.79,'11111222,11111222,11111222' 
TABS,ioos:station:wmo:42047:1,2009-12-04T02:30:00Z,27.8966,-93.5973,4.0,5.424656671,28.87992588,6.81,'11111222,11111222,11111222' 
TABS,ioos:station:wmo:42047:1,2009-12-04T03:00:00Z,27.8966,-93.5973,4.0,4.64595523,44.38925152,5.84,'11111222,11111222,11111222' 
TABS,ioos:station:wmo:42047:1,2009-12-04T03:30:00Z,27.8966,-93.5973,4.0,6.491602268,31.58408915,8.52,'11111222,11111222,11111222' 
TABS,ioos:station:wmo:42047:1,2009-12-04T04:00:00Z,27.8966,-93.5973,4.0,6.601121117,33.25645814,9.18,'11111222,11111222,11111222' 
TABS,ioos:station:wmo:42047:1,2009-12-04T04:30:00Z,27.8966,-93.5973,4.0,6.390524235,30.25615595,8.38,'11111222,11111222,11111222' 
TABS,ioos:station:wmo:42047:1,2009-12-04T05:00:00Z,27.8966,-93.5973,4.0,6.03431852,37.45829918,7.5,'11111222,11111222,11111222' 
TABS,ioos:station:wmo:42047:1,2009-12-04T05:30:00Z,27.8966,-93.5973,4.0,6.051842695,33.95235961,7.65,'11111222,11111222,11111222' 
TABS,ioos:station:wmo:42047:1,2009-12-04T06:00:00Z,27.8966,-93.5973,4.0,6.362020119,37.01369534,7.82,'11111222,11111222,11111222' 
TABS,ioos:station:wmo:42047:1,2009-12-04T06:30:00Z,27.8966,-93.5973,4.0,6.713605589,34.99172791,8.55,'11111222,11111222,11111222' 
TABS,ioos:station:wmo:42047:1,2009-12-04T07:00:00Z,27.8966,-93.5973,4.0,6.616947937,35.89975523,8.1,'11111222,11111222,11111222' 
TABS,ioos:station:wmo:42047:1,2009-12-04T07:30:00Z,27.8966,-93.5973,4.0,7.043138505,45.57492247,8.37,'11111222,11111222,11111222' 
TABS,ioos:station:wmo:42047:1,2009-12-04T08:00:00Z,27.8966,-93.5973,4.0,7.052942648,39.01474599,8.68,'11111222,11111222,11111222' 
TABS,ioos:station:wmo:42047:1,2009-12-04T08:30:00Z,27.8966,-93.5973,4.0,7.177165179,44.83033807,8.78,'11111222,11111222,11111222' 
TABS,ioos:station:wmo:42047:1,2009-12-04T09:00:00Z,27.8966,-93.5973,4.0,7.284016749,57.16045321,9.24,'11111222,11111222,11111222' 
TABS,ioos:station:wmo:42047:1,2009-12-04T09:30:00Z,27.8966,-93.5973,4.0,9.022776734,50.0802742,10.83,'11111222,11111222,11111222' 
TABS,ioos:station:wmo:42047:1,2009-12-04T10:00:00Z,27.8966,-93.5973,4.0,8.869120588,50.26027185,10.36,'11111222,11111222,11111222' 
TABS,ioos:station:wmo:42047:1,2009-12-04T10:30:00Z,27.8966,-93.5973,4.0,8.860276519,45.41121818,10.47,'11111222,11111222,11111222' 
TABS,ioos:station:wmo:42047:1,2009-12-04T11:00:00Z,27.8966,-93.5973,4.0,8.054123168,50.89545947,10.2,'11111222,11111222,11111222' 
TABS,ioos:station:wmo:42047:1,2009-12-04T11:30:00Z,27.8966,-93.5973,4.0,8.620910625,51.64086819,10.96,'11111222,11111222,11111222' 
TABS,ioos:station:wmo:42047:1,2009-12-04T12:00:00Z,27.8966,-93.5973,4.0,9.745409176,48.24407584,11.4,'11111222,11111222,11111222' 
TABS,ioos:station:wmo:42047:1,2009-12-04T12:30:00Z,27.8966,-93.5973,4.0,10.15846937,57.42031705,12.26,'11111222,11111222,11111222' 
TABS,ioos:station:wmo:42047:1,2009-12-04T13:00:00Z,27.8966,-93.5973,4.0,10.98728356,59.84080736,12.83,'11111222,11111222,11111222' 
TABS,ioos:station:wmo:42047:1,2009-12-04T13:30:00Z,27.8966,-93.5973,4.0,10.66666771,61.00764969,12.3,'11111222,11111222,11111222' 
TABS,ioos:station:wmo:42047:1,2009-12-04T14:00:00Z,27.8966,-93.5973,4.0,10.7740104,66.36112146,11.88,'11111222,11111222,11111222' 
TABS,ioos:station:wmo:42047:1,2009-12-04T14:30:00Z,27.8966,-93.5973,4.0,10.48351086,66.85845326,12.88,'11111222,11111222,11111222' 
TABS,ioos:station:wmo:42047:1,2009-12-04T15:00:00Z,27.8966,-93.5973,4.0,9.700231956,60.95077995,11.25,'11111222,11111222,11111222' 
TABS,ioos:station:wmo:42047:1,2009-12-04T15:30:00Z,27.8966,-93.5973,4.0,10.88665697,49.43263004,12.59,'11111222,11111222,11111222' 
TABS,ioos:station:wmo:42047:1,2009-12-04T16:00:00Z,27.8966,-93.5973,4.0,11.29455178,49.20029669,13.11,'11111222,11111222,11111222' 
TABS,ioos:station:wmo:42047:1,2009-12-04T16:30:00Z,27.8966,-93.5973,4.0,12.3898749,44.14946888,13.51,'11111222,11111222,11111222' 
TABS,ioos:station:wmo:42047:1,2009-12-04T17:00:00Z,27.8966,-93.5973,4.0,12.89234269,36.45184614,14.64,'11111222,11111222,11111222' 
TABS,ioos:station:wmo:42047:1,2009-12-04T17:30:00Z,27.8966,-93.5973,4.0,12.6752712,33.25097995,14.1,'11111222,11111222,11111222' 
TABS,ioos:station:wmo:42047:1,2009-12-04T18:00:00Z,27.8966,-93.5973,4.0,13.01759578,40.01377837,15.03,'11111222,11111222,11111222' 
TABS,ioos:station:wmo:42047:1,2009-12-04T18:30:00Z,27.8966,-93.5973,4.0,12.6394185,28.85619354,14.78,'11111222,11111222,11111222' 